星链-33628 (STARLINK-33628)

导读 | 豆包AI

STARLINK-33628是美国于2025年2月21日发射的星链系列卫星,星链计划是太空探索技术公司(SpaceX)打造的低轨卫星互联网星座项目。该卫星继承星链技术特点,运行于近地轨道,为全球偏远、欠发达区域提供高速互联网接入服务,也补充完善全球星链通信网络覆盖与容量,支撑星座的全球互联能力。

基本信息
目录编号:
63067
目录名称:
STARLINK-33628
国际标识:
2025-035R
轨道中心:
EARTH
卫星名称:
星链-33628
卫星全名:
星链-33628 (STARLINK-33628)
卫星状态:
在轨 (已飞行432 天)
发射日期:
2025-02-21 UTC
国别 :
美国 (US)
星等 :
--
轨道信息
数据来源 国际轨道数据
星历时间: 2026-04-29T16:09:49+0800
12小时前
查看轨道信息
半长轴: 6861.176km
偏心率: 0.000134
轨道倾角: 43.002°
近地点辐角 276.671°
升交点赤经 221.242°
平近点角 83.399°
近地点: 482.119km
远地点: 483.959km
周期: 94.267分钟
每日圈数: 15.275835
详细信息
固有亮度:
5
最大亮度:
2.5
卫星平台:
Starlink V1.0
覆盖范围:
全球
运营商:
太空探索技术公司
运营商所在国:
美国
制造商(研发单位):
太空探索技术公司
制造商所在国:
美国
使用方式:
暂无
卫星简介
Starlink 计划是 SpaceX 推出的全球卫星互联网项目,通过发射低轨道卫星,为全球尤其是偏远地区提供高速、低延迟的互联网服务。自 2019 年起,Starlink 已部署数千颗卫星,旨在缩小全球数字鸿沟,推动互联网普及。该项目还为军事、航空等行业提供通信支持,带来广泛经济效益。
2D轨道图
3D轨道图
轨道高度分析图
轨道倾角分析图
轨道综合分析图
查看轨道综合分析图